Weather in Chupa

Russia / Republic of Karelia     62°08′27″N   34°01′06″E
temp.,
°C
wind,
m/s
gust,
m/s
humid.,
%
clouds,
%
prec.,
mm/h
press.,
hPa
HPBL,
m
28 february, sun
sun2800:00−3w2495100 0.1 1015159
03:00−5wsw2294100 0.1 101442
06:00−7sw2296100 0.0 101241
09:00−6ssw1296100 0.0 101251
12:00−2sw249699 0.0 1013285
15:00−1sw249698 0.0 1014418
18:000wsw2597100 0.1 1015217
21:00+1w2797100 0.1 1016357
1 march, mon
mon100:00−3wsw259624 0.0 1015123
03:00−3wsw4119318 0.0 1014319
06:00+1w5119799 0.0 1012615
09:00+1w41097100 0.0 1010635
12:00+1wsw41198100 0.0 1008553
15:00+2w513100100 0.1 1007740
18:00+1wnw41299100 0.3 1004697
21:00+1w4128994 0.3 1003667
2 march, tue
tue200:000wnw4138670 0.4 1003759
03:00−1wnw5158552 0.4 1003868
06:00−2wnw5148284 0.0 10021076
09:00−2nw6148286 0.0 10041072
12:00−1nnw6128398 0.0 10071014
15:00−1nw598498 0.1 1010957
18:00−3nw3118785 0.0 1011399
21:00−5wnw398751 0.0 1013270
3 march, wed
wed300:00−5nw311904 0.0 1014377
03:00−6wnw39942 0.0 1015233
06:00−7wnw310944 0.0 1015321
09:00−7wnw38937 0.0 1016207
12:00−2w379013 0.0 1015354
15:00−1w488939 0.0 1012527
18:00−2wsw41186100 0.0 1009531
21:00−1wsw51392100 0.0 1004730
4 march, thu
thu400:000wsw61397100 0.3 999975
03:00+1w61397100 0.4 995983
06:000w51281100 1.2 9931009
09:00−5wnw6138496 1.4 9921096
12:00−4nw71481100 0.1 9941553
15:00−4nnw61281100 0.3 9971300
18:00−7nnw41185100 0.1 1000773
21:00−10nw399090 0.1 1001294